PulseSat

PulseSat

COSMOS 2458 (734)

Last updated on Jan. 18, 2019, 3 a.m. UTC

1 36113U 09070C   19017.31134965  .00000065  00000-0  10000-3 0  9995
2 36113  64.1814 163.7029 0003109  53.8069 186.4970  2.13091646 70769
UTC
Height (km)
Latitude
Longitude
Inclination
Orbital Period

Next 30 passes for location: Hong Kong

Rise time Rise Azimuth (degrees) Set time Set Azimuth (degrees) Duration Max altitude (degrees)

No matching passes for this satellites

PulseSat

PulseSat is the new satellites software and hardware trackering solution by Pulsely.
Satellite Two Line Element Set source: US Air Force Space Command

Download PulseSat for iOS
© 2017 Pulsely Limited